Location: Corralito
(10.2667°N, 66.9500°W)
Time: 17:36:31
(UTC+00:00)

GPS 2-15 Rocket1 - Pass Details

Date: 23 March 2023
Orbit: 620 x 670 km, 19.8° (Epoch: 08 June)

Event Time Altitude Azimuth Distance (km) Brightness Sun altitude
Rises 23:00:11 0° 289° (WNW) 2,879 8.3 -6.1°
Reaches altitude 10° 23:02:32 10° 290° (WNW) 1,970 7.1 -6.7°
Maximum altitude 23:07:09 80° 17° (NNE) 625 3.1 -7.9°
Enters shadow 23:11:38 11° 105° (ESE) 1,922 4.9 -9.0°
